Home > Weather > Zweibrücken > Past weeks

Flag for Germany Weather for the Past 2 Weeks in Zweibrücken, Rhineland-Palatinate, Germany

Now
43 °F

Light rain. Passing clouds.


Feels Like: 35 °F
Forecast: 35 / 44 °F
Wind: 16 mph from Southwest

Location: Saarbruecken / Ensheim

Current Time: Feb 13, 2016 at 11:04:35 PM

Latest Report: Feb 13, 2016 at 10:20 PM


Visibility: N/A

Pressure: 29.00 "Hg

Humidity: 93%

Dew point: 41 °F

Location of ZweibrückenLocation

Historic Weather in Zweibrücken — Graph

°F

Zweibrücken Temperature Yesterday

Maximum temperature yesterday: 39 °F (at 2:20 PM)
Minimum temperature yesterday: 32 °F (at 1:20 AM)
Average temperature yesterday: 36 °F

High & Low Weather Summary for the Past Weeks

 TemperatureHumidityPressure
High54 °F (Feb 1, 1:20 AM)100% (Jan 31, 2:20 PM)30.36 "Hg (Jan 31, 2:20 PM)
Low32 °F (Feb 12, 1:20 AM)58% (Feb 6, 1:20 PM)29.00 "Hg (Feb 13, 8:20 PM)
Average42 °F87%29.83 "Hg
* Reported Jan 29 9:20 PM — Feb 13 9:20 PM, Zweibrücken, Weather by CustomWeather, © 2016

Note: Actual official high and low records may vary slightly from our data, if they occured in-between our weather recording intervals... More about our weather records

Advertising

Zweibrücken Weather History for the Previous 24 Hours

 ConditionsComfort  
Time TempWeatherWind HumidityBarometerVisibility
9:20 PM
Sat, Feb 13
43 °FLight rain. Passing clouds.16 mph93%29.00 "Hg5 mi
8:50 PM43 °FLight rain. Partly cloudy.15 mph93%29.00 "HgN/A
8:20 PM43 °FLight rain. Partly cloudy.12 mph93%29.00 "HgN/A
7:50 PM41 °FRain. Passing clouds.10 mph93%29.03 "Hg6 mi
7:20 PM43 °FLight rain. Partly cloudy.12 mph93%29.03 "Hg5 mi
6:50 PM43 °FPartly cloudy.8 mph93%29.03 "Hg5 mi
6:20 PM43 °FPassing clouds.12 mph93%29.03 "Hg5 mi
5:50 PM43 °FRain. Fog.9 mph93%29.03 "Hg3 mi
5:20 PM41 °FQuite cool.8 mph100%29.06 "HgN/A
4:50 PM41 °FRain. Partly sunny.10 mph93%29.06 "Hg3 mi
4:20 PM41 °FLight rain. Partly sunny.12 mph93%29.06 "Hg4 mi
3:50 PM41 °FLight rain. Partly sunny.13 mph93%29.06 "Hg5 mi
3:20 PM41 °FLight rain. Partly sunny.10 mph93%29.09 "Hg3 mi
2:50 PM41 °FLight rain. Partly sunny.10 mph93%29.12 "Hg3 mi
2:20 PM41 °FLight rain. Partly sunny.7 mph93%29.12 "Hg3 mi
1:50 PM41 °FDrizzle. Partly sunny.8 mph93%29.15 "Hg5 mi
1:20 PM41 °FDrizzle. Partly sunny.7 mph93%29.18 "Hg5 mi
12:50 PM39 °FDrizzle. Partly sunny.7 mph100%29.18 "Hg5 mi
12:20 PM37 °FDrizzle. Partly sunny.5 mph93%29.21 "Hg4 mi
11:50 AM37 °FDrizzle. Partly sunny.7 mph93%29.24 "Hg4 mi
11:20 AM36 °FPartly sunny.6 mph93%29.24 "Hg4 mi
10:50 AM36 °FLight rain. Partly sunny.6 mph93%29.24 "Hg5 mi
10:20 AM36 °FBroken clouds.6 mph93%29.27 "HgN/A
9:50 AM36 °FBroken clouds.6 mph93%29.27 "Hg5 mi
9:20 AM34 °FFog.6 mph100%29.30 "Hg3 mi
8:50 AM34 °FLight rain. Fog.9 mph100%29.30 "Hg2 mi
8:20 AM36 °FDrizzle. Fog.7 mph93%29.30 "Hg3 mi
7:50 AM36 °FFog.9 mph93%29.33 "Hg3 mi
7:20 AM36 °FFog.8 mph93%29.30 "Hg2 mi
6:50 AM36 °FDrizzle. Fog.6 mph100%29.33 "Hg2 mi
6:20 AM36 °FDrizzle. Fog.7 mph100%29.33 "Hg2 mi
5:50 AM36 °FDrizzle. Fog.7 mph100%29.33 "Hg1 mi
5:20 AM36 °FDrizzle. Fog.3 mph93%29.33 "Hg1 mi
4:50 AM36 °FFog.3 mph93%29.33 "Hg1 mi
4:20 AM36 °FFog.3 mph93%29.33 "Hg1 mi
3:20 AM36 °FLow clouds.5 mph93%29.33 "Hg1 mi
2:50 AM36 °FPassing clouds.3 mph93%29.33 "Hg1 mi
2:20 AM36 °FLow clouds.3 mph93%29.33 "Hg1 mi
1:50 AM36 °FPassing clouds.3 mph93%29.33 "HgN/A
1:20 AM36 °FOvercast.6 mph93%29.33 "HgN/A
12:50 AM36 °FOvercast.5 mph93%29.33 "HgN/A
12:20 AM36 °FOvercast.7 mph93%29.30 "HgN/A
11:50 PM
Fri, Feb 12
36 °FPartly cloudy.7 mph93%29.30 "HgN/A
11:20 PM36 °FPassing clouds.9 mph93%29.30 "HgN/A
Weather by CustomWeather, © 2016

See weather overviewHow to use our weather pages